Location: Newark
(36.1358°N, 115.1208°W)
Time: 19:32:31
(UTC+00:00)

Courier 1B - Visible Passes

Search period start: 16 February 2020 00:00
Search period end: 26 February 2020 00:00
Orbit: 962 x 1209 km, 28.3° (Epoch: 16 February)

Date Brightness Start Highest point End Pass type
(mag) Time Alt. Az. Time Alt. Az. Time Alt. Az.
16 Feb 8.5 02:08:15 10° SW 02:14:41 38° S 02:20:03 13° ESE visible
16 Feb 8.5 04:01:55 10° WSW 04:06:57 38° SSW 04:06:57 38° SSW visible
17 Feb 8.2 03:08:05 10° WSW 03:14:37 44° S 03:16:38 35° SE visible
17 Feb 9.9 05:02:14 10° WSW 05:03:32 15° WSW 05:03:32 15° WSW visible
18 Feb 8.4 02:14:15 10° WSW 02:20:56 44° S 02:26:19 14° ESE visible
18 Feb 8.7 04:08:17 10° WSW 04:13:13 34° SW 04:13:13 34° SW visible
19 Feb 8.3 03:14:21 10° WSW 03:20:52 42° S 03:22:56 33° SSE visible
19 Feb 10.0 05:08:59 10° WSW 05:09:50 13° WSW 05:09:50 13° WSW visible
20 Feb 8.4 02:20:26 10° WSW 02:27:11 44° S 02:32:39 14° ESE visible
20 Feb 9.0 04:14:51 10° WSW 04:19:33 28° SW 04:19:33 28° SW visible
21 Feb 8.6 03:20:47 10° WSW 03:27:04 35° SSW 03:29:18 28° SSE visible
22 Feb 8.6 02:26:45 10° WSW 02:33:25 40° S 02:39:06 13° SE visible
22 Feb 9.3 04:21:46 10° WSW 04:26:00 21° SSW 04:26:00 21° SSW visible
23 Feb 9.1 03:27:26 10° WSW 03:33:11 27° SSW 03:35:50 21° SSE visible
24 Feb 9.0 02:33:14 10° WSW 02:39:33 32° SSW 02:45:34 10° SE visible
24 Feb 9.8 04:29:40 10° WSW 04:32:38 13° SSW 04:32:38 13° SSW visible
25 Feb 9.6 03:34:36 10° WSW 03:39:12 18° SSW 03:42:34 13° S visible
